COSMOS 2251 DEB, 36453

Orbit data source: Space-Track

COSMOS 2251 DEB, 36453 is space debris in LEO originally from a launch on Wed, 16 Jun 1993 UTC launched from the Plesetsk Missile And Space Complex (PKMTR). The debris from Iridium 33, an American commercial communications satellite, has been tracked extensively since its accidental collision with the defunct Russian satellite Cosmos 2251 in 2009. This event, occurring at high speed in low Earth orbit (LEO), generated thousands of pieces of space debris, significantly increasing the risk of further collisions. The Iridium 33 debris cloud has impacted space traffic management and orbital debris mitigation strategies, making it a subject of ongoing study in space situational awareness.

Loading next visibility...
Identifier
36453, 1993-036BBC
Orbit
LEO
Country
Flag of CISCIS
Related business
Manufacturer
Unknown
Mission
Spacecraft
Bus & Motor
Unknown
Mass
Unknown
Launch date (UTC)
1993-06-16 (33 years ago)
Launch vehicle
Unknown
Launch site
Plesetsk Missile And Space Complex (PKMTR)
Object type
Payload
Rocket body
Debris
Shape & HBR
Unknown shape, 0.1 m
Radar Cross Section
Small (<0.1 m²)

Expand to show TLE details & history
Last TLE update: 11 hours ago

TLE from 11 hours ago
0 COSMOS 2251 DEB
1 36453U 93036BBC 26035.48448360  .00005105  00000-0  11984-2 0  9991
2 36453  73.9234  50.3003 0072828 301.0749 210.6742 14.53105463852484
Epoch: 2026-02-04T11:37Z
TLE epoch observation values (Epoch: 2026-02-04T11:37:39.383Z)
Latitude
27.50197°
Longitude
-87.34691°
Altitude
763.127 km
Speed
7.452 km/s
True Right ascension
14h 46m 52s
True Declination
27° 21' 41"
Sunlit
Object was in daylight at epoch
Visualization orbit readout
Latitude
Unknown
Longitude
Unknown
Altitude
Unknown
Speed
Unknown
Apparent Right ascension
Unknown
Apparent Declination
Unknown
Sunlit
N/A
Visualization observer readout
Local Sidereal Time
00:59:00
Azimuth
Unknown
Elevation
Unknown
Doppler factor
Unknown
Orbital elements
Apogee altitude
764.783 km
Perigee altitude
661.494 km
Semi-major axis
7,091.275 km
Eccentricity
0.00728
Inclination
73.9234°
RAAN
50.3003°
Arg. of periapsis
301.0749°
True anomaly
210.25176°
Mean anomaly
210.6742°
Eccentric anomaly
210.46265°
Mean motion
3.6346 °/min
Orbital period
99.05 mins
BSTAR
0.0011984
Loading maneuver chart data...
Computing Atmospheric mass density...

Documentation

Showing up to 5 results
|